When you browse on this site, cookies collect data to enhance your experience and personalize the content and advertising you see.
Visit our Privacy Policy to learn more. By continuing to use the site, you agree to this use of cookies and data.
  • In United Kingdom
  • List of Countries
  • For 7 days
  • Water Temperature
  • Weather Map
  • Weather Widgets
  • user-avatar
    Login

    Hourly Weather Abertillery

    Today, 3 June, Wednesday

    Time Temperature Precipitation Wind Pressure Humidity
    00:00 +14°C° 0 mm 1 mps 740 mmHg 78%
    01:00 +14°C° 0.1 mm 1 mps 739 mmHg 78%
    02:00 +14°C° 0.1 mm 1 mps 738 mmHg 78%
    03:00 +14°C° 0.1 mm 1 mps 738 mmHg 77%
    04:00 +14°C° 0.1 mm 1 mps 738 mmHg 80%
    05:00 +14°C° 0.1 mm 1 mps 737 mmHg 82%
    06:00 +13°C° 0.1 mm 1 mps 737 mmHg 85%
    07:00 +13°C° 0.9 mm 1 mps 737 mmHg 88%
    08:00 +13°C° 0.9 mm 1 mps 737 mmHg 91%
    09:00 +13°C° 0.9 mm 1 mps 736 mmHg 94%
    10:00 +13°C° 1.2 mm 1 mps 736 mmHg 94%
    11:00 +13°C° 1.2 mm 2 mps 736 mmHg 95%
    12:00 +13°C° 1.2 mm 2 mps 736 mmHg 95%
    13:00 +12°C° 0.7 mm 3 mps 736 mmHg 95%
    14:00 +11°C° 0.7 mm 4 mps 736 mmHg 95%
    15:00 +10°C° 0.7 mm 6 mps 736 mmHg 95%
    16:00 +10°C° 0.2 mm 5 mps 736 mmHg 94%
    17:00 +10°C° 0.2 mm 5 mps 736 mmHg 93%
    18:00 +10°C° 0.2 mm 5 mps 736 mmHg 93%
    19:00 +9°C° 0 mm 5 mps 736 mmHg 93%
    20:00 +8°C° 0 mm 4 mps 736 mmHg 93%
    21:00 +8°C° 0 mm 4 mps 737 mmHg 93%
    22:00 +8°C° 0 mm 4 mps 736 mmHg 93%
    23:00 +8°C° 0 mm 3 mps 736 mmHg 93%

    Tomorrow, 4 June, Thursday

    Time Temperature Precipitation Wind Pressure Humidity
    00:00 +8°C° 0 mm 3 mps 736 mmHg 93%
    01:00 +8°C° 0 mm 3 mps 736 mmHg 93%
    02:00 +7°C° 0 mm 2 mps 735 mmHg 93%
    03:00 +7°C° 0 mm 2 mps 735 mmHg 93%
    04:00 +7°C° 0 mm 2 mps 735 mmHg 91%
    05:00 +8°C° 0 mm 2 mps 735 mmHg 90%
    06:00 +9°C° 0 mm 3 mps 735 mmHg 89%
    07:00 +10°C° 0 mm 3 mps 735 mmHg 85%
    08:00 +11°C° 0 mm 3 mps 735 mmHg 81%
    09:00 +12°C° 0 mm 3 mps 734 mmHg 77%
    10:00 +13°C° 0.1 mm 4 mps 734 mmHg 72%
    11:00 +13°C° 0.1 mm 5 mps 734 mmHg 68%
    12:00 +14°C° 0.1 mm 5 mps 734 mmHg 63%
    13:00 +14°C° 0 mm 6 mps 734 mmHg 64%
    14:00 +13°C° 0 mm 6 mps 733 mmHg 66%
    15:00 +12°C° 0 mm 7 mps 733 mmHg 67%
    16:00 +12°C° 0 mm 7 mps 733 mmHg 71%
    17:00 +11°C° 0 mm 6 mps 732 mmHg 75%
    18:00 +10°C° 0 mm 6 mps 732 mmHg 79%
    19:00 +10°C° 0 mm 5 mps 732 mmHg 83%
    20:00 +11°C° 0 mm 4 mps 732 mmHg 86%
    21:00 +10°C° 0 mm 4 mps 732 mmHg 90%
    22:00 +9°C° 0 mm 3 mps 731 mmHg 91%
    23:00 +9°C° 0 mm 3 mps 731 mmHg 92%

    Day after tomorrow, 5 June, Friday

    Time Temperature Precipitation Wind Pressure Humidity
    00:00 +8°C° 0 mm 3 mps 731 mmHg 93%
    01:00 +8°C° 0 mm 3 mps 730 mmHg 93%
    02:00 +6°C° 0 mm 4 mps 730 mmHg 93%
    03:00 +6°C° 0 mm 4 mps 730 mmHg 93%
    04:00 +6°C° 0 mm 5 mps 730 mmHg 91%
    05:00 +7°C° 0 mm 5 mps 730 mmHg 88%
    06:00 +7°C° 0 mm 6 mps 730 mmHg 85%
    07:00 +8°C° 0 mm 6 mps 730 mmHg 79%
    08:00 +9°C° 0 mm 7 mps 730 mmHg 72%
    09:00 +10°C° 0 mm 7 mps 730 mmHg 65%
    10:00 +11°C° 0 mm 7 mps 730 mmHg 62%
    11:00 +12°C° 0 mm 7 mps 730 mmHg 60%
    12:00 +12°C° 0 mm 7 mps 730 mmHg 57%
    13:00 +12°C° 0 mm 7 mps 730 mmHg 57%
    14:00 +12°C° 0 mm 7 mps 730 mmHg 56%
    15:00 +12°C° 0 mm 7 mps 730 mmHg 56%
    16:00 +11°C° 0.1 mm 7 mps 730 mmHg 61%
    17:00 +10°C° 0.1 mm 7 mps 729 mmHg 67%
    18:00 +9°C° 0.1 mm 6 mps 729 mmHg 73%
    19:00 +8°C° 0 mm 5 mps 730 mmHg 77%
    20:00 +7°C° 0 mm 4 mps 730 mmHg 82%
    21:00 +5°C° 0 mm 3 mps 730 mmHg 87%
    22:00 +5°C° 0 mm 3 mps 730 mmHg 87%
    23:00 +4°C° 0 mm 3 mps 730 mmHg 88%

    6 June, Saturday

    Time Temperature Precipitation Wind Pressure Humidity
    00:00 +3°C° 0 mm 3 mps 730 mmHg 88%
    01:00 +3°C° 0 mm 3 mps 730 mmHg 88%
    02:00 +3°C° 0 mm 4 mps 730 mmHg 88%
    03:00 +3°C° 0 mm 4 mps 730 mmHg 88%
    04:00 +2°C° 0 mm 5 mps 730 mmHg 85%
    05:00 +3°C° 0 mm 6 mps 731 mmHg 81%
    06:00 +4°C° 0 mm 7 mps 731 mmHg 78%
    07:00 +5°C° 0.1 mm 7 mps 731 mmHg 75%
    08:00 +6°C° 0.1 mm 8 mps 731 mmHg 71%
    09:00 +7°C° 0.1 mm 8 mps 731 mmHg 68%
    10:00 +7°C° 0.1 mm 8 mps 731 mmHg 67%
    11:00 +9°C° 0.1 mm 8 mps 731 mmHg 65%
    12:00 +10°C° 0.1 mm 9 mps 731 mmHg 64%
    13:00 +9°C° 0.1 mm 8 mps 731 mmHg 67%
    14:00 +9°C° 0.1 mm 8 mps 731 mmHg 70%
    15:00 +7°C° 0.1 mm 8 mps 731 mmHg 73%
    16:00 +7°C° 0 mm 8 mps 730 mmHg 74%
    17:00 +9°C° 0 mm 8 mps 730 mmHg 74%
    18:00 +9°C° 0 mm 8 mps 730 mmHg 74%
    19:00 +8°C° 0.1 mm 7 mps 730 mmHg 78%
    20:00 +8°C° 0.1 mm 7 mps 730 mmHg 82%
    21:00 +6°C° 0.1 mm 7 mps 731 mmHg 87%
    22:00 +6°C° 0.2 mm 7 mps 730 mmHg 88%
    23:00 +6°C° 0.2 mm 7 mps 730 mmHg 89%

    7 June, Sunday

    Time Temperature Precipitation Wind Pressure Humidity
    00:00 +6°C° 0.2 mm 7 mps 730 mmHg 91%
    01:00 +7°C° 0.1 mm 6 mps 730 mmHg 91%
    02:00 +7°C° 0.1 mm 6 mps 730 mmHg 92%
    03:00 +7°C° 0.1 mm 6 mps 730 mmHg 92%
    04:00 +8°C° 0 mm 5 mps 730 mmHg 92%
    05:00 +8°C° 0 mm 5 mps 730 mmHg 92%
    06:00 +8°C° 0 mm 4 mps 730 mmHg 92%
    07:00 +9°C° 0.2 mm 5 mps 730 mmHg 87%
    08:00 +12°C° 0.2 mm 5 mps 730 mmHg 82%
    09:00 +13°C° 0.2 mm 5 mps 731 mmHg 77%
    10:00 +13°C° 0.7 mm 6 mps 731 mmHg 77%
    11:00 +14°C° 0.7 mm 6 mps 731 mmHg 76%
    12:00 +14°C° 0.7 mm 6 mps 731 mmHg 76%
    13:00 +14°C° 1.1 mm 6 mps 732 mmHg 76%
    14:00 +14°C° 1.1 mm 6 mps 732 mmHg 77%
    15:00 +15°C° 1.1 mm 6 mps 732 mmHg 77%
    16:00 +14°C° 0.5 mm 6 mps 732 mmHg 78%
    17:00 +14°C° 0.5 mm 5 mps 733 mmHg 79%
    18:00 +13°C° 0.5 mm 4 mps 733 mmHg 80%
    19:00 +12°C° 0.1 mm 4 mps 733 mmHg 82%
    20:00 +11°C° 0.1 mm 3 mps 734 mmHg 84%
    21:00 +10°C° 0.1 mm 3 mps 734 mmHg 86%
    22:00 +9°C° 0 mm 2 mps 734 mmHg 86%
    23:00 +9°C° 0 mm 2 mps 734 mmHg 86%

    8 June, Monday

    Time Temperature Precipitation Wind Pressure Humidity
    00:00 +9°C° 0 mm 2 mps 734 mmHg 86%
    01:00 +9°C° 0.3 mm 2 mps 734 mmHg 89%
    02:00 +9°C° 0.3 mm 2 mps 734 mmHg 92%
    03:00 +9°C° 0.3 mm 2 mps 734 mmHg 95%
    04:00 +10°C° 0.3 mm 2 mps 734 mmHg 94%
    05:00 +10°C° 0.3 mm 3 mps 734 mmHg 94%
    06:00 +11°C° 0.3 mm 3 mps 734 mmHg 93%
    07:00 +11°C° 0.2 mm 4 mps 734 mmHg 91%
    08:00 +12°C° 0.2 mm 4 mps 735 mmHg 89%
    09:00 +13°C° 0.2 mm 4 mps 735 mmHg 86%
    10:00 +13°C° 0.5 mm 4 mps 735 mmHg 84%
    11:00 +14°C° 0.5 mm 4 mps 735 mmHg 82%
    12:00 +15°C° 0.5 mm 4 mps 735 mmHg 80%
    13:00 +15°C° 0.7 mm 5 mps 736 mmHg 79%
    14:00 +15°C° 0.7 mm 5 mps 736 mmHg 78%
    15:00 +15°C° 0.7 mm 6 mps 736 mmHg 77%
    16:00 +15°C° 0.3 mm 6 mps 736 mmHg 78%
    17:00 +14°C° 0.3 mm 6 mps 736 mmHg 78%
    18:00 +14°C° 0.3 mm 6 mps 736 mmHg 79%
    19:00 +12°C° 0 mm 5 mps 736 mmHg 83%
    20:00 +11°C° 0 mm 4 mps 736 mmHg 88%
    21:00 +9°C° 0 mm 3 mps 737 mmHg 92%
    22:00 +9°C° 0 mm 3 mps 737 mmHg 93%
    23:00 +8°C° 0 mm 2 mps 737 mmHg 93%
    Show more